Overview Statistics Trail Chart Weather Telemetry Raw packets
 

This is the latest recevied weather packets stored in our database for station/object EA1JAV-10. If no packets are shown the sender has not sent any weather packets the latest 10 day(s).

<< 1 2 3 4 >>
Time Temp. Humidity Pressure Rain* Wind** Luminosity Snow
1788613620 30° C 38% 1003.2 hPa - - - -
1788611820 29.44° C 40% 1003.6 hPa - - - -
1788610020 28.89° C 43% 1003.7 hPa - - - -
1788608220 27.78° C 45% 1004.1 hPa - - - -
1788606420 27.22° C 46% 1004.4 hPa - - - -
1788604620 26.67° C 48% 1004.6 hPa - - - -
1788602820 25.56° C 49% 1004.8 hPa - - - -
1788601020 25° C 49% 1004.9 hPa - - - -
1788599219 24.44° C 49% 1005 hPa - - - -
1788597419 23.89° C 49% 1005 hPa - - - -
1788595619 23.89° C 49% 1005 hPa - - - -
1788593819 23.89° C 49% 1004.9 hPa - - - -
1788592019 23.89° C 48% 1004.9 hPa - - - -
1788590219 24.44° C 47% 1004.9 hPa - - - -
1788588419 24.44° C 47% 1004.9 hPa - - - -
1788586619 24.44° C 48% 1004.9 hPa - - - -
1788584819 24.44° C 47% 1004.7 hPa - - - -
1788583019 24.44° C 48% 1004.7 hPa - - - -
1788581219 24.44° C 47% 1005 hPa - - - -
1788579418 24.44° C 47% 1005.3 hPa - - - -
1788577618 25° C 47% 1005.3 hPa - - - -
1788575818 25.56° C 46% 1005.3 hPa - - - -
1788574018 25° C 47% 1005.3 hPa - - - -
1788572218 25° C 46% 1005.5 hPa - - - -
1788570418 25° C 47% 1005.8 hPa - - - -

* Rain since midnight (hover to see other rain measurements)
** Current wind speed in m/s (hover to see current wind gust speed)